| time (UTC) | temp F | wind direction | speed MPH | gust MPH | rain 1hr in | rain 24hr in | rain mn in | humidity % | barometer mb |
| 20260502190509 | 64 | 291 | 2.0 | 5.0 | 0.00 | 0.00 | 0.00 | 68 | 1016.3 |
| 20260502190023 | 65 | 221 | 1.0 | 8.0 | 0.00 | 0.00 | 0.00 | 66 | 1016.3 |
| 20260502185512 | 64 | 39 | 1.0 | 8.0 | 0.00 | 0.00 | 0.00 | 67 | 1016.4 |
| 20260502185011 | 64 | 360 | 3.0 | 9.0 | 0.00 | 0.00 | 0.00 | 67 | 1016.6 |
| 20260502184525 | 64 | 114 | 1.0 | 9.0 | 0.00 | 0.00 | 0.00 | 69 | 1016.5 |
| 20260502184007 | 63 | 360 | 2.0 | 7.0 | 0.00 | 0.00 | 0.00 | 70 | 1016.6 |
| 20260502183504 | 62 | 333 | 3.0 | 7.0 | 0.00 | 0.00 | 0.00 | 70 | 1016.6 |
| 20260502183013 | 62 | 15 | 2.0 | 4.0 | 0.00 | 0.00 | 0.00 | 71 | 1016.7 |
| 20260502182504 | 61 | 346 | 1.0 | 4.0 | 0.00 | 0.00 | 0.00 | 70 | 1016.7 |
| 20260502182011 | 61 | 48 | 1.0 | 5.0 | 0.00 | 0.00 | 0.00 | 72 | 1016.7 |
| 20260502181519 | 60 | 12 | 2.0 | 5.0 | 0.00 | 0.00 | 0.00 | 72 | 1016.7 |
| 20260502181008 | 60 | 352 | 4.0 | 5.0 | 0.00 | 0.00 | 0.00 | 71 | 1016.7 |
| 20260502180508 | 60 | 352 | 2.0 | 5.0 | 0.00 | 0.00 | 0.00 | 73 | 1016.7 |
| 20260502170511 | 57 | 163 | 1.0 | 3.0 | 0.00 | 0.00 | 0.00 | 81 | 1017.1 |
| 20260502164009 | 53 | 298 | 1.0 | 3.0 | 0.00 | 0.00 | 0.00 | 85 | 1017.3 |
| 20260502163511 | 52 | 292 | 2.0 | 3.0 | 0.00 | 0.00 | 0.00 | 85 | 1017.2 |
| 20260502163033 | 52 | 301 | 1.0 | 3.0 | 0.00 | 0.00 | 0.00 | 86 | 1017.3 |
| 20260502162508 | 52 | 267 | 2.0 | 3.0 | 0.00 | 0.00 | 0.00 | 87 | 1017.2 |
| 20260502162012 | 51 | 273 | 1.0 | 3.0 | 0.00 | 0.00 | 0.00 | 87 | 1017.3 |
| 20260502161529 | 51 | 284 | 1.0 | 4.0 | 0.00 | 0.00 | 0.00 | 86 | 1017.3 |
| 20260502161010 | 52 | 272 | 1.0 | 4.0 | 0.00 | 0.00 | 0.00 | 85 | 1017.3 |
| 20260502160508 | 52 | 181 | 1.0 | 3.0 | 0.00 | 0.00 | 0.00 | 87 | 1017.4 |
| 20260502152011 | 51 | 277 | 0.0 | 0.0 | 0.00 | 0.00 | 0.00 | 88 | 1017.0 |
| 20260502151509 | 51 | 232 | 0.0 | 0.0 | 0.00 | 0.00 | 0.00 | 89 | 1017.1 |
| 20260502151006 | 51 | 232 | 0.0 | 0.0 | 0.00 | 0.00 | 0.00 | 88 | 1017.2 |
| 20260502150504 | 50 | 284 | 0.0 | 0.0 | 0.00 | 0.00 | 0.00 | 88 | 1017.1 |
| 20260502130505 | 49 | 187 | 0.0 | 0.0 | 0.00 | 0.00 | 0.00 | 90 | 1017.0 |
| 20260502123507 | 50 | 187 | 0.0 | 2.0 | 0.00 | 0.00 | 0.00 | 90 | 1017.1 |
| 20260502123022 | 50 | 187 | 0.0 | 2.0 | 0.00 | 0.00 | 0.00 | 90 | 1017.2 |
| 20260502122512 | 49 | 179 | 1.0 | 2.0 | 0.00 | 0.00 | 0.00 | 90 | 1017.2 |
| 20260502122009 | 49 | 151 | 0.0 | 0.0 | 0.00 | 0.00 | 0.00 | 90 | 1017.2 |
| 20260502121524 | 50 | 151 | 0.0 | 0.0 | 0.00 | 0.00 | 0.00 | 90 | 1017.3 |
| 20260502121009 | 49 | 151 | 0.0 | 0.0 | 0.00 | 0.00 | 0.00 | 90 | 1017.3 |
| 20260502120511 | 49 | 142 | 0.0 | 0.0 | 0.00 | 0.00 | 0.00 | 90 | 1017.2 |
| 20260502115507 | 49 | 142 | 0.0 | 2.0 | 0.00 | 0.00 | 0.00 | 89 | 1017.4 |
| 20260502115004 | 49 | 91 | 0.0 | 2.0 | 0.00 | 0.00 | 0.00 | 90 | 1017.2 |
| 20260502114512 | 49 | 175 | 0.0 | 2.0 | 0.00 | 0.00 | 0.00 | 90 | 1017.3 |
| 20260502114004 | 49 | 175 | 0.0 | 1.0 | 0.00 | 0.00 | 0.00 | 89 | 1017.3 |
| 20260502113509 | 49 | 288 | 0.0 | 0.0 | 0.00 | 0.00 | 0.00 | 90 | 1017.2 |
| 20260502113019 | 49 | 236 | 0.0 | 0.0 | 0.00 | 0.00 | 0.00 | 89 | 1017.3 |
| 20260502112507 | 50 | 241 | 0.0 | 0.0 | 0.00 | 0.00 | 0.00 | 89 | 1017.2 |
| 20260502112007 | 50 | 241 | 0.0 | 0.0 | 0.00 | 0.00 | 0.00 | 89 | 1017.2 |
| 20260502111523 | 50 | 225 | 0.0 | 0.0 | 0.00 | 0.00 | 0.00 | 89 | 1017.4 |
| 20260502111010 | 50 | 218 | 0.0 | 0.0 | 0.00 | 0.00 | 0.00 | 89 | 1017.5 |
| 20260502110509 | 50 | 338 | 0.0 | 1.0 | 0.00 | 0.00 | 0.00 | 89 | 1017.5 |
| 20260502110026 | 50 | 194 | 0.0 | 2.0 | 0.00 | 0.00 | 0.00 | 89 | 1017.7 |
| 20260502105512 | 50 | 212 | 1.0 | 2.0 | 0.00 | 0.00 | 0.00 | 89 | 1017.9 |
| 20260502105011 | 50 | 207 | 0.0 | 2.0 | 0.00 | 0.00 | 0.00 | 89 | 1017.9 |
| 20260502104534 | 50 | 211 | 0.0 | 2.0 | 0.00 | 0.00 | 0.00 | 89 | 1017.9 |
| 20260502104004 | 50 | 200 | 0.0 | 2.0 | 0.00 | 0.00 | 0.00 | 89 | 1017.8 |
| 20260502103504 | 50 | 199 | 0.0 | 2.0 | 0.00 | 0.00 | 0.00 | 89 | 1017.6 |
| 20260502103025 | 50 | 196 | 0.0 | 2.0 | 0.00 | 0.00 | 0.00 | 89 | 1017.3 |
| 20260502102506 | 50 | 185 | 0.0 | 0.0 | 0.00 | 0.00 | 0.00 | 88 | 1017.1 |
| 20260502102008 | 50 | 185 | 0.0 | 0.0 | 0.00 | 0.00 | 0.00 | 88 | 1017.1 |
| 20260502101520 | 50 | 185 | 0.0 | 0.0 | 0.00 | 0.00 | 0.00 | 88 | 1016.9 |
| 20260502101007 | 50 | 185 | 0.0 | 1.0 | 0.00 | 0.00 | 0.00 | 88 | 1016.9 |
| 20260502100507 | 50 | 185 | 0.0 | 2.0 | 0.00 | 0.00 | 0.00 | 88 | 1016.9 |
| 20260502091524 | 52 | 184 | 0.0 | 0.0 | 0.00 | 0.00 | 0.00 | 86 | 1016.7 |
| 20260502091014 | 52 | 184 | 0.0 | 0.0 | 0.00 | 0.00 | 0.00 | 86 | 1016.8 |
| 20260502090508 | 52 | 184 | 0.0 | 1.0 | 0.00 | 0.00 | 0.00 | 85 | 1017.0 |
| 20260502071536 | 55 | 281 | 0.0 | 0.0 | 0.00 | 0.00 | 0.00 | 71 | 1016.6 |
| 20260502071004 | 55 | 281 | 0.0 | 0.0 | 0.00 | 0.00 | 0.00 | 71 | 1016.8 |
| 20260502070507 | 55 | 281 | 0.0 | 0.0 | 0.00 | 0.00 | 0.00 | 72 | 1016.8 |
| 20260502070023 | 56 | 281 | 0.0 | 0.0 | 0.00 | 0.00 | 0.00 | 71 | 1016.7 |
| 20260502065508 | 56 | 281 | 0.0 | 1.0 | 0.00 | 0.00 | 0.00 | 70 | 1016.6 |
| 20260502065008 | 56 | 281 | 0.0 | 2.0 | 0.00 | 0.00 | 0.00 | 70 | 1016.6 |
| 20260502064521 | 56 | 281 | 0.0 | 2.0 | 0.00 | 0.00 | 0.00 | 70 | 1016.6 |
| 20260502064004 | 56 | 281 | 0.0 | 2.0 | 0.00 | 0.00 | 0.00 | 70 | 1016.6 |
| 20260502063504 | 57 | 281 | 0.0 | 2.0 | 0.00 | 0.00 | 0.00 | 70 | 1016.6 |
| 20260502063007 | 57 | 284 | 0.0 | 2.0 | 0.00 | 0.00 | 0.00 | 69 | 1016.4 |
| 20260502062503 | 57 | 284 | 0.0 | 2.0 | 0.00 | 0.00 | 0.00 | 70 | 1016.5 |
| 20260502062004 | 57 | 284 | 0.0 | 3.0 | 0.00 | 0.00 | 0.00 | 69 | 1016.5 |
| 20260502061510 | 57 | 294 | 1.0 | 3.0 | 0.00 | 0.00 | 0.00 | 68 | 1016.4 |
| 20260502061003 | 57 | 223 | 0.0 | 2.0 | 0.00 | 0.00 | 0.00 | 69 | 1016.6 |
| 20260502060507 | 58 | 303 | 1.0 | 2.0 | 0.00 | 0.00 | 0.00 | 68 | 1016.5 |
| 20260502060020 | 58 | 248 | 0.0 | 2.0 | 0.00 | 0.00 | 0.00 | 68 | 1016.5 |
| 20260502055508 | 58 | 195 | 0.0 | 2.0 | 0.00 | 0.00 | 0.00 | 67 | 1016.4 |
| 20260502055010 | 58 | 281 | 1.0 | 2.0 | 0.00 | 0.00 | 0.00 | 67 | 1016.3 |
| 20260502054522 | 59 | 252 | 1.0 | 2.0 | 0.00 | 0.00 | 0.00 | 66 | 1016.2 |
| 20260502054007 | 60 | 269 | 1.0 | 4.0 | 0.00 | 0.00 | 0.00 | 62 | 1016.2 |
| 20260502053507 | 61 | 261 | 2.0 | 4.0 | 0.00 | 0.00 | 0.00 | 58 | 1016.1 |
| 20260502053024 | 62 | 270 | 1.0 | 2.0 | 0.00 | 0.00 | 0.00 | 56 | 1016.1 |
| 20260502052503 | 62 | 24 | 0.0 | 3.0 | 0.00 | 0.00 | 0.00 | 56 | 1016.1 |
| 20260502052002 | 62 | 25 | 1.0 | 4.0 | 0.00 | 0.00 | 0.00 | 55 | 1016.0 |
| 20260502051517 | 62 | 342 | 1.0 | 4.0 | 0.00 | 0.00 | 0.00 | 56 | 1015.9 |
| 20260502051003 | 62 | 352 | 0.0 | 2.0 | 0.00 | 0.00 | 0.00 | 55 | 1016.0 |
| 20260502050507 | 62 | 17 | 0.0 | 2.0 | 0.00 | 0.00 | 0.00 | 55 | 1015.9 |
| 20260502050016 | 62 | 11 | 1.0 | 2.0 | 0.00 | 0.00 | 0.00 | 55 | 1015.9 |
| 20260502045504 | 62 | 9 | 0.0 | 3.0 | 0.00 | 0.00 | 0.00 | 54 | 1015.9 |
| 20260502045007 | 63 | 352 | 2.0 | 3.0 | 0.00 | 0.00 | 0.00 | 54 | 1015.9 |
| 20260502044520 | 63 | 5 | 0.0 | 5.0 | 0.00 | 0.00 | 0.00 | 54 | 1015.8 |
| 20260502044008 | 63 | 30 | 1.0 | 5.0 | 0.00 | 0.00 | 0.00 | 54 | 1015.7 |
| 20260502043507 | 63 | 5 | 1.0 | 5.0 | 0.00 | 0.00 | 0.00 | 55 | 1015.8 |
| 20260502043021 | 63 | 35 | 1.0 | 5.0 | 0.00 | 0.00 | 0.00 | 56 | 1015.7 |
| 20260502042512 | 63 | 336 | 2.0 | 5.0 | 0.00 | 0.00 | 0.00 | 56 | 1015.8 |
| 20260502042010 | 62 | 53 | 0.0 | 2.0 | 0.00 | 0.00 | 0.00 | 57 | 1015.8 |
| 20260502041524 | 63 | 49 | 0.0 | 3.0 | 0.00 | 0.00 | 0.00 | 59 | 1015.6 |
| 20260502041007 | 63 | 11 | 0.0 | 3.0 | 0.00 | 0.00 | 0.00 | 58 | 1015.7 |
| 20260502040503 | 63 | 313 | 1.0 | 3.0 | 0.00 | 0.00 | 0.00 | 59 | 1015.7 |
| 20260502040014 | 63 | 352 | 1.0 | 5.0 | 0.00 | 0.00 | 0.00 | 59 | 1015.6 |
| 20260502035503 | 63 | 13 | 1.0 | 5.0 | 0.00 | 0.00 | 0.00 | 59 | 1015.5 |
| 20260502035006 | 63 | 10 | 1.0 | 6.0 | 0.00 | 0.00 | 0.00 | 60 | 1015.3 |
| 20260502034534 | 63 | 5 | 2.0 | 6.0 | 0.00 | 0.00 | 0.00 | 59 | 1015.3 |
| 20260502034008 | 63 | 42 | 0.0 | 6.0 | 0.00 | 0.00 | 0.00 | 59 | 1015.3 |
| 20260502033509 | 63 | 26 | 1.0 | 7.0 | 0.00 | 0.00 | 0.00 | 59 | 1015.0 |
| 20260502033028 | 63 | 13 | 3.0 | 7.0 | 0.00 | 0.00 | 0.00 | 58 | 1015.0 |
| 20260502032507 | 63 | 346 | 1.0 | 2.0 | 0.00 | 0.00 | 0.00 | 59 | 1015.0 |
| 20260502032010 | 63 | 342 | 0.0 | 2.0 | 0.00 | 0.00 | 0.00 | 59 | 1015.0 |
| 20260502031524 | 63 | 274 | 0.0 | 0.0 | 0.00 | 0.00 | 0.00 | 60 | 1014.9 |
| 20260502031010 | 63 | 274 | 0.0 | 0.0 | 0.00 | 0.00 | 0.00 | 58 | 1014.9 |
| 20260502030510 | 64 | 275 | 0.0 | 0.0 | 0.00 | 0.00 | 0.00 | 58 | 1014.9 |
| 20260502030024 | 64 | 275 | 0.0 | 0.0 | 0.00 | 0.00 | 0.00 | 57 | 1014.8 |
| 20260502025506 | 64 | 275 | 0.0 | 1.0 | 0.00 | 0.00 | 0.00 | 56 | 1014.7 |
| 20260502025006 | 65 | 275 | 0.0 | 2.0 | 0.00 | 0.00 | 0.00 | 56 | 1014.7 |
| 20260502024512 | 66 | 275 | 1.0 | 2.0 | 0.00 | 0.00 | 0.00 | 53 | 1014.7 |
| 20260502024007 | 66 | 13 | 0.0 | 3.0 | 0.00 | 0.00 | 0.00 | 51 | 1014.6 |
| 20260502023512 | 66 | 13 | 1.0 | 4.0 | 0.00 | 0.00 | 0.00 | 50 | 1014.5 |
| 20260502023020 | 66 | 5 | 1.0 | 4.0 | 0.00 | 0.00 | 0.00 | 50 | 1014.6 |
| 20260502022506 | 67 | 302 | 2.0 | 4.0 | 0.00 | 0.00 | 0.00 | 49 | 1014.4 |
| 20260502022007 | 67 | 296 | 0.0 | 3.0 | 0.00 | 0.00 | 0.00 | 49 | 1014.6 |
| 20260502021524 | 67 | 40 | 1.0 | 3.0 | 0.00 | 0.00 | 0.00 | 48 | 1014.5 |
| 20260502021008 | 67 | 18 | 2.0 | 3.0 | 0.00 | 0.00 | 0.00 | 47 | 1014.5 |
| 20260502020510 | 67 | 36 | 2.0 | 3.0 | 0.00 | 0.00 | 0.00 | 47 | 1014.4 |
| 20260502020024 | 67 | 19 | 2.0 | 3.0 | 0.00 | 0.00 | 0.00 | 48 | 1014.4 |
| 20260502015508 | 67 | 22 | 2.0 | 5.0 | 0.00 | 0.00 | 0.00 | 47 | 1014.5 |
| 20260502015012 | 67 | 5 | 3.0 | 5.0 | 0.00 | 0.00 | 0.00 | 46 | 1014.5 |
| 20260502014527 | 67 | 214 | 1.0 | 8.0 | 0.00 | 0.00 | 0.00 | 46 | 1014.5 |
| 20260502014009 | 67 | 346 | 4.0 | 11.0 | 0.00 | 0.00 | 0.00 | 46 | 1014.5 |
| 20260502013504 | 67 | 328 | 3.0 | 11.0 | 0.00 | 0.00 | 0.00 | 45 | 1014.6 |
| 20260502013016 | 67 | 24 | 4.0 | 9.0 | 0.00 | 0.00 | 0.00 | 45 | 1014.6 |
| 20260502012507 | 68 | 48 | 2.0 | 7.0 | 0.00 | 0.00 | 0.00 | 45 | 1014.6 |
| 20260502012009 | 68 | 18 | 2.0 | 7.0 | 0.00 | 0.00 | 0.00 | 44 | 1014.6 |
| 20260502011529 | 68 | 16 | 2.0 | 10.0 | 0.00 | 0.00 | 0.00 | 45 | 1014.7 |
| 20260502011008 | 69 | 57 | 4.0 | 10.0 | 0.00 | 0.00 | 0.00 | 44 | 1014.7 |
| 20260502010508 | 69 | 305 | 3.0 | 6.0 | 0.00 | 0.00 | 0.00 | 44 | 1014.7 |
| 20260502010004 | 69 | 338 | 3.0 | 8.0 | 0.00 | 0.00 | 0.00 | 44 | 1014.7 |
| 20260502005503 | 69 | 337 | 3.0 | 9.0 | 0.00 | 0.00 | 0.00 | 44 | 1014.7 |
| 20260502005004 | 69 | 65 | 4.0 | 9.0 | 0.00 | 0.00 | 0.00 | 44 | 1014.7 |
| 20260502004508 | 69 | 36 | 2.0 | 6.0 | 0.00 | 0.00 | 0.00 | 45 | 1014.7 |
| 20260502004007 | 69 | 5 | 2.0 | 7.0 | 0.00 | 0.00 | 0.00 | 43 | 1014.7 |
| 20260502003502 | 69 | 291 | 4.0 | 9.0 | 0.00 | 0.00 | 0.00 | 43 | 1014.6 |
| 20260502003004 | 70 | 295 | 5.0 | 9.0 | 0.00 | 0.00 | 0.00 | 42 | 1014.7 |
| 20260502002501 | 70 | 352 | 3.0 | 5.0 | 0.00 | 0.00 | 0.00 | 43 | 1014.7 |
| 20260502002001 | 70 | 9 | 1.0 | 5.0 | 0.00 | 0.00 | 0.00 | 43 | 1014.6 |
| 20260502001504 | 70 | 65 | 1.0 | 4.0 | 0.00 | 0.00 | 0.00 | 43 | 1014.6 |
| 20260502001003 | 70 | 11 | 2.0 | 8.0 | 0.00 | 0.00 | 0.00 | 44 | 1014.6 |
| 20260502000504 | 70 | 45 | 4.0 | 8.0 | 0.00 | 0.00 | 0.00 | 44 | 1014.6 |
| 20260502000005 | 70 | 20 | 3.0 | 8.0 | 0.00 | 0.00 | 0.00 | 44 | 1014.6 |
| 20260501235506 | 70 | 352 | 4.0 | 8.0 | 0.00 | 0.00 | 0.00 | 43 | 1014.6 |
| 20260501235004 | 70 | 350 | 2.0 | 8.0 | 0.00 | 0.00 | 0.00 | 44 | 1014.5 |
| 20260501234507 | 70 | 9 | 1.0 | 9.0 | 0.00 | 0.00 | 0.00 | 45 | 1014.4 |
| 20260501234004 | 71 | 26 | 3.0 | 9.0 | 0.00 | 0.00 | 0.00 | 43 | 1014.5 |
| 20260501233507 | 70 | 66 | 1.0 | 4.0 | 0.00 | 0.00 | 0.00 | 50 | 1014.6 |
| 20260501233013 | 70 | 28 | 2.0 | 3.0 | 0.00 | 0.00 | 0.00 | 45 | 1014.6 |
| 20260501232508 | 70 | 71 | 1.0 | 6.0 | 0.00 | 0.00 | 0.00 | 51 | 1014.6 |
| 20260501232004 | 70 | 254 | 2.0 | 6.0 | 0.00 | 0.00 | 0.00 | 49 | 1014.6 |
| 20260501231503 | 69 | 5 | 1.0 | 6.0 | 0.00 | 0.00 | 0.00 | 51 | 1014.7 |
| 20260501231003 | 69 | 281 | 2.0 | 4.0 | 0.00 | 0.00 | 0.00 | 54 | 1014.7 |
| 20260501230504 | 69 | 294 | 1.0 | 3.0 | 0.00 | 0.00 | 0.00 | 53 | 1014.9 |
| 20260501230005 | 68 | 301 | 1.0 | 4.0 | 0.00 | 0.00 | 0.00 | 54 | 1014.9 |
| 20260501225504 | 68 | 256 | 1.0 | 4.0 | 0.00 | 0.00 | 0.00 | 54 | 1014.9 |
| 20260501225003 | 68 | 268 | 2.0 | 4.0 | 0.00 | 0.00 | 0.00 | 54 | 1015.1 |
| 20260501224507 | 69 | 308 | 2.0 | 4.0 | 0.00 | 0.00 | 0.00 | 53 | 1015.1 |
| 20260501224003 | 70 | 293 | 2.0 | 6.0 | 0.00 | 0.00 | 0.00 | 52 | 1015.2 |
| 20260501223508 | 72 | 272 | 2.0 | 6.0 | 0.00 | 0.00 | 0.00 | 49 | 1015.3 |
| 20260501223010 | 71 | 315 | 2.0 | 3.0 | 0.00 | 0.00 | 0.00 | 48 | 1015.2 |
| 20260501222506 | 72 | 17 | 1.0 | 6.0 | 0.00 | 0.00 | 0.00 | 47 | 1015.2 |
| 20260501222008 | 71 | 307 | 2.0 | 9.0 | 0.00 | 0.00 | 0.00 | 47 | 1015.3 |
| 20260501221514 | 70 | 49 | 2.0 | 9.0 | 0.00 | 0.00 | 0.00 | 46 | 1015.4 |
| 20260501221012 | 71 | 327 | 3.0 | 7.0 | 0.00 | 0.00 | 0.00 | 45 | 1015.4 |
| 20260501220503 | 71 | 348 | 3.0 | 8.0 | 0.00 | 0.00 | 0.00 | 46 | 1015.4 |
| 20260501220006 | 71 | 19 | 2.0 | 8.0 | 0.00 | 0.00 | 0.00 | 44 | 1015.5 |
| 20260501215504 | 71 | 327 | 3.0 | 7.0 | 0.00 | 0.00 | 0.00 | 43 | 1015.5 |
| 20260501215004 | 71 | 351 | 3.0 | 6.0 | 0.00 | 0.00 | 0.00 | 43 | 1015.6 |
| 20260501214510 | 70 | 34 | 2.0 | 6.0 | 0.00 | 0.00 | 0.00 | 42 | 1015.6 |
| 20260501214003 | 70 | 9 | 3.0 | 7.0 | 0.00 | 0.00 | 0.00 | 43 | 1015.6 |
| 20260501213503 | 70 | 34 | 2.0 | 9.0 | 0.00 | 0.00 | 0.00 | 46 | 1015.6 |
| 20260501213011 | 70 | 9 | 4.0 | 9.0 | 0.00 | 0.00 | 0.00 | 45 | 1015.6 |
| 20260501212503 | 71 | 267 | 3.0 | 5.0 | 0.00 | 0.00 | 0.00 | 44 | 1015.8 |
| 20260501212007 | 71 | 264 | 2.0 | 8.0 | 0.00 | 0.00 | 0.00 | 50 | 1015.8 |
| 20260501211520 | 69 | 360 | 2.0 | 8.0 | 0.00 | 0.00 | 0.00 | 48 | 1015.8 |
| 20260501211005 | 69 | 273 | 1.0 | 6.0 | 0.00 | 0.00 | 0.00 | 50 | 1015.8 |
| 20260501210509 | 68 | 337 | 3.0 | 6.0 | 0.00 | 0.00 | 0.00 | 49 | 1015.8 |
| 20260501210020 | 69 | 338 | 2.0 | 5.0 | 0.00 | 0.00 | 0.00 | 50 | 1015.8 |
| 20260501205507 | 69 | 279 | 2.0 | 7.0 | 0.00 | 0.00 | 0.00 | 51 | 1015.8 |
| 20260501205004 | 68 | 24 | 3.0 | 7.0 | 0.00 | 0.00 | 0.00 | 51 | 1015.8 |
| 20260501204503 | 68 | 280 | 1.0 | 7.0 | 0.00 | 0.00 | 0.00 | 52 | 1015.8 |
| 20260501204004 | 68 | 207 | 3.0 | 7.0 | 0.00 | 0.00 | 0.00 | 50 | 1015.9 |
| 20260501203503 | 68 | 286 | 3.0 | 8.0 | 0.00 | 0.00 | 0.00 | 51 | 1015.9 |
| 20260501203008 | 68 | 233 | 1.0 | 8.0 | 0.00 | 0.00 | 0.00 | 51 | 1015.9 |
| 20260501202504 | 67 | 281 | 2.0 | 7.0 | 0.00 | 0.00 | 0.00 | 53 | 1015.9 |
| 20260501202003 | 67 | 313 | 2.0 | 7.0 | 0.00 | 0.00 | 0.00 | 51 | 1015.9 |
| 20260501201512 | 67 | 258 | 2.0 | 7.0 | 0.00 | 0.00 | 0.00 | 52 | 1016.0 |
| 20260501201006 | 67 | 251 | 2.0 | 8.0 | 0.00 | 0.00 | 0.00 | 53 | 1015.9 |
| 20260501200513 | 67 | 288 | 1.0 | 8.0 | 0.00 | 0.00 | 0.00 | 53 | 1015.9 |
| 20260501200020 | 66 | 302 | 2.0 | 6.0 | 0.00 | 0.00 | 0.00 | 54 | 1015.9 |
| 20260501195509 | 68 | 305 | 3.0 | 7.0 | 0.00 | 0.00 | 0.00 | 52 | 1016.0 |
| 20260501195007 | 67 | 9 | 2.0 | 8.0 | 0.00 | 0.00 | 0.00 | 53 | 1016.0 |
| 20260501194522 | 67 | 296 | 3.0 | 8.0 | 0.00 | 0.00 | 0.00 | 53 | 1016.0 |
| 20260501194003 | 66 | 352 | 2.0 | 8.0 | 0.00 | 0.00 | 0.00 | 55 | 1016.0 |
| 20260501193503 | 66 | 340 | 5.0 | 8.0 | 0.00 | 0.00 | 0.00 | 54 | 1016.0 |
| 20260501193003 | 66 | 14 | 5.0 | 8.0 | 0.00 | 0.00 | 0.00 | 54 | 1016.1 |
| 20260501192503 | 65 | 244 | 4.0 | 7.0 | 0.00 | 0.00 | 0.00 | 56 | 1016.1 |
| 20260501192003 | 65 | 261 | 2.0 | 8.0 | 0.00 | 0.00 | 0.00 | 59 | 1016.2 |
| 20260501191510 | 64 | 340 | 3.0 | 8.0 | 0.00 | 0.00 | 0.00 | 58 | 1016.4 |
| 20260501191007 | 64 | 299 | 4.0 | 8.0 | 0.00 | 0.00 | 0.00 | 57 | 1016.4 |